Showing default

CENTISPACE-1 S13, 62582

Orbit data source: Space-Track

CENTISPACE-1 S13, 62582 is a payload satellite owned by Centispace (CN) in LEO that was launched on Mon, 13 Jan 2025 UTC via a JIELONG-3 launch vehicle from the Yellow Sea Launch Area, China (YSLA). Payload-class satellites include a variety of spacecraft equipped with specific instruments for various scientific and technological missions. These include communications satellites like Starlink; space stations such as the ISS; scientific satellites like the Hubble; Earth observation satellites from companies like Planet Labs, Umbra, and HawkEye 360; GPS; miniature CubeSats for education and research; and military/defense satellites.

Loading next visibility...
Identifier
62582, 2025-007H
Orbit
LEO
Country
Flag of CNCN / PRC
Related business
Manufacturer
DFH Shenzhen
Mission
Operational Commercial Nav/Com
Bus & Motor
WK01, Unknown motor
Mass
140 kg wet, 140 kg dry
Launch date (UTC)
2025-01-13 (8 months ago)
Launch vehicle
JIELONG-3
Launch site
Yellow Sea Launch Area, China (YSLA)
Object type
Payload
Rocket body
Debris
Shape & HBR
Box + 2 Pan, 1.0 m
Radar Cross Section
0.833 m², Medium (>0.1 m² and < 1m²)

Expand to show TLE details & history
Last TLE update: 11 hours ago

TLE from 11 hours ago
0 CENTISPACE-1 S13
1 62582U 25007H   25261.02685258  .00000493  00000-0  17508-3 0  9999
2 62582  54.9826 204.0531 0075792   1.4801 358.6396 14.47569581 36467
Epoch: 2025-09-18T00:38Z
TLE epoch observation values (Epoch: 2025-09-18T00:38:40.062Z)
Latitude
-0.00008°
Longitude
-162.80823°
Altitude
680.766 km
Speed
7.546 km/s
True Right ascension
13h 36m 12s
True Declination
0° 00' 00"
Sunlit
Object was in daylight at epoch
Visualization orbit readout
Latitude
Unknown
Longitude
Unknown
Altitude
Unknown
Speed
Unknown
Apparent Right ascension
Unknown
Apparent Declination
Unknown
Sunlit
N/A
Visualization observer readout
Local Sidereal Time
04:01:40
Azimuth
Unknown
Elevation
Unknown
Doppler factor
Unknown
Orbital elements
Apogee altitude
787.465 km
Perigee altitude
679.663 km
Semi-major axis
7,111.701 km
Eccentricity
0.00758
Inclination
54.9826°
RAAN
204.0531°
Arg. of periapsis
1.4801°
True anomaly
358.61878°
Mean anomaly
358.6396°
Eccentric anomaly
358.62921°
Mean motion
3.61895 °/min
Orbital period
99.48 mins
BSTAR
0.00017508
Loading maneuver chart data...
Computing Atmospheric mass density...
Loading historical data...
Loading historical data...
Loading historical data...
Loading historical data...
Loading historical data...
Loading historical data...
Loading historical data...

Documentation

Showing up to 5 results
|